Location: Gazon
(48.1318°N, 1.2708°W)
Time: 21:36:42
(UTC+00:00)

Resurs 01 Rocket - Pass Details

Date: 18 September 2020
Orbit: 633 x 645 km, 98.0° (Epoch: 24 October)

Event Time Altitude Azimuth Distance (km) Brightness Sun altitude
Exits shadow 20:56:50 57° 255° (WSW) 763 2.1 -26.7°
Maximum altitude 20:56:54 57° 259° (W) 762 2.1 -26.7°
Drops below altitude 10° 21:01:19 10° 339° (NNW) 2,053 5.0 -27.3°
Sets 21:03:35 0° 343° (NNW) 2,966 5.9 -27.6°
